CW9561 Weather Reports


time (UTC)temp
C
wind
direction
speed
KPH
gust
KPH
rain 1hr
cm
rain 24hr
cm
rain mn
cm
humidity
%
barometer
mb
20260507052030 -1 242 1.6 0.0 0.00 0.00 0.05 66 1021.8
20260507051022 -2 241 0.0 0.0 0.00 0.00 0.05 70 1022.1
20260507045034 -2 241 0.0 0.0 0.00 0.00 0.05 74 1022.3
20260507043040 -2 241 0.0 0.0 0.00 0.00 0.05 76 1022.3
20260507041029 -2 241 0.0 0.0 0.00 0.00 0.05 75 1022.8
20260507040023 -2 241 0.0 0.0 0.00 0.00 0.05 73 1022.7
20260507035038 -2 241 0.0 0.0 0.00 0.00 0.05 74 1022.8
20260507034030 -2 241 0.0 0.0 0.00 0.00 0.05 71 1022.6
20260507033042 -2 241 0.0 0.0 0.00 0.00 0.05 72 1022.5
20260507031031 -1 241 0.0 0.0 0.00 0.00 0.05 71 1022.0
20260507030030 -1 241 0.0 0.0 0.00 0.00 0.05 68 1021.8
20260507025023 -1 241 0.0 0.0 0.00 0.00 0.05 68 1021.8
20260507024033 -1 241 0.0 0.0 0.00 0.00 0.05 69 1021.4
20260507023026 -1 241 0.0 0.0 0.00 0.00 0.05 69 1021.4
20260507022024 -1 241 0.0 0.0 0.00 0.00 0.05 69 1021.3
20260507021040 0 241 0.0 0.0 0.00 0.00 0.05 67 1021.3
20260507020032 0 241 0.0 0.0 0.00 0.00 0.05 64 1020.9
20260507014037 0 241 0.0 0.0 0.00 0.00 0.05 62 1020.5
20260507013030 0 241 0.0 0.0 0.00 0.00 0.05 59 1020.2
20260507012027 1 241 0.0 0.0 0.00 0.00 0.05 58 1020.1
20260507011038 1 241 1.6 0.0 0.00 0.00 0.05 56 1020.1
20260507010033 1 219 1.6 0.0 0.00 0.00 0.05 54 1019.9
20260507005026 1 236 1.6 0.0 0.00 0.00 0.05 55 1019.6
20260507004023 2 325 0.0 0.0 0.00 0.00 0.05 53 1019.2
20260507003034 2 321 0.0 0.0 0.00 0.00 0.05 55 1019.0
20260507002028 2 325 1.6 0.0 0.00 0.00 0.05 55 1019.0
20260507001041 2 355 0.0 0.0 0.00 0.00 0.05 53 1018.9
20260507000031 2 294 0.0 0.0 0.00 0.00 0.05 57 1018.9
20260506235029 2 262 1.6 0.0 0.00 0.00 0.05 57 1018.7
20260506234023 2 334 1.6 0.0 0.00 0.00 0.05 55 1018.7
20260506232036 3 307 1.6 0.0 0.00 0.00 0.05 56 1018.6
20260506231029 3 307 0.0 0.0 0.00 0.00 0.05 57 1018.3
20260506230029 3 303 1.6 0.0 0.00 0.00 0.05 53 1018.2
20260506225026 3 286 1.6 0.0 0.00 0.00 0.05 53 1018.0
20260506224040 3 277 1.6 0.0 0.00 0.00 0.05 56 1017.9
20260506223035 3 294 4.8 0.0 0.00 0.00 0.05 59 1018.0
20260506222027 3 280 3.2 0.0 0.00 0.00 0.05 58 1018.0
20260506220020 4 289 3.2 0.0 0.00 0.00 0.05 53 1017.7
20260506214030 4 265 6.4 0.0 0.00 0.00 0.05 59 1017.9
20260506213026 4 340 1.6 0.0 0.00 0.00 0.05 58 1017.8
20260506212023 3 64 3.2 0.0 0.00 0.00 0.05 57 1017.7
20260506211035 3 343 3.2 0.0 0.00 0.00 0.05 60 1017.9
20260506205027 2 355 1.6 0.0 0.00 0.00 0.05 72 1017.7
20260506204039 1 319 4.8 0.0 0.00 0.00 0.05 80 1017.7
20260506203031 0 348 4.8 0.0 0.00 0.00 0.05 78 1017.8
20260506202029 2 351 4.8 0.0 0.00 0.00 0.05 78 1017.8
20260506201021 2 337 4.8 0.0 0.00 0.00 0.05 68 1017.5
20260506200036 1 223 3.2 0.0 0.00 0.00 0.05 69 1017.5
20260506195027 0 350 1.6 0.0 0.00 0.00 0.05 73 1017.5
20260506194027 1 262 3.2 0.0 0.00 0.00 0.05 74 1017.6
20260506193021 2 348 3.2 0.0 0.00 0.00 0.05 71 1017.4
20260506192036 1 57 4.8 0.0 0.00 0.00 0.05 74 1017.3
20260506191028 0 36 3.2 0.0 0.00 0.00 0.05 69 1017.3
20260506190021 0 233 1.6 0.0 0.00 0.00 0.05 69 1017.2
20260506185038 1 338 4.8 0.0 0.00 0.00 0.05 64 1017.2
20260506184031 0 348 4.8 0.0 0.00 0.00 0.05 69 1017.1
20260506183024 0 21 4.8 0.0 0.00 0.00 0.05 66 1017.1
20260506182041 0 332 8.0 0.0 0.00 0.00 0.05 69 1017.0
20260506175026 0 360 6.4 0.0 0.00 0.00 0.03 76 1016.7
20260506174040 0 15 3.2 0.0 0.00 0.00 0.03 76 1016.6
20260506173031 0 348 6.4 0.0 0.00 0.00 0.03 79 1016.5
20260506172022 0 29 3.2 0.0 0.00 0.00 0.03 79 1016.5
20260506171019 -1 21 6.4 0.0 0.00 0.00 0.03 78 1016.4
20260506170033 -2 350 6.4 0.0 0.00 0.00 0.03 79 1016.9
20260506165025 -2 10 1.6 0.0 0.00 0.00 0.00 81 1016.7
20260506163038 -3 360 3.2 0.0 0.00 0.00 0.00 84 1016.2
20260506162030 -3 326 1.6 0.0 0.00 0.00 0.00 85 1016.1
20260506161024 -3 342 1.6 0.0 0.00 0.00 0.00 85 1016.2
20260506160041 -3 5 1.6 0.0 0.00 0.00 0.00 86 1015.9
20260506153026 -3 314 1.6 0.0 0.00 0.00 0.00 83 1014.9
20260506152023 -3 319 1.6 0.0 0.00 0.00 0.00 82 1014.8
20260506151019 -3 289 1.6 0.0 0.00 0.00 0.00 84 1014.7
20260506150038 -4 286 3.2 0.0 0.00 0.00 0.00 84 1014.6
20260506145030 -4 263 3.2 0.0 0.00 0.00 0.00 85 1014.6
20260506144023 -4 346 3.2 0.0 0.00 0.00 0.00 85 1014.4
20260506143039 -4 286 1.6 0.0 0.00 0.00 0.00 86 1014.6
20260506142034 -4 246 1.6 0.0 0.00 0.00 0.00 86 1014.4
20260506141026 -5 304 3.2 0.0 0.00 0.00 0.00 86 1014.9
20260506140023 -5 5 1.6 0.0 0.00 0.00 0.00 86 1014.9
20260506135035 -5 286 1.6 0.0 0.00 0.00 0.00 86 1014.6
20260506134031 -5 120 0.0 0.0 0.00 0.00 0.00 85 1014.4
20260506133021 -5 340 0.0 0.0 0.00 0.00 0.00 86 1014.2
20260506132034 -5 343 0.0 0.0 0.00 0.00 0.00 86 1013.9
20260506131028 -5 348 0.0 0.0 0.00 0.00 0.00 87 1013.6
20260506130029 -5 348 3.2 0.0 0.00 0.00 0.00 87 1013.4
20260506125022 -5 350 1.6 0.0 0.00 0.00 0.00 87 1013.1
20260506123031 -4 293 1.6 0.0 0.00 0.00 0.00 88 1013.5
20260506122023 -5 290 1.6 0.0 0.00 0.00 0.00 88 1013.4
20260506121023 -4 300 3.2 0.0 0.00 0.00 0.00 88 1013.0
20260506115036 -4 279 3.2 0.0 0.00 0.00 0.00 88 1012.8
20260506114029 -4 279 1.6 0.0 0.00 0.00 0.00 88 1012.6
20260506113021 -4 324 0.0 0.0 0.00 0.00 0.00 89 1012.8
20260506112031 -4 340 0.0 0.0 0.00 0.00 0.00 89 1012.6
20260506111028 -4 345 1.6 0.0 0.00 0.00 0.00 89 1012.5
20260506110022 -4 317 1.6 0.0 0.00 0.00 0.00 88 1012.4
20260506105035 -4 311 0.0 0.0 0.00 0.00 0.00 88 1012.1
20260506104026 -4 333 1.6 0.0 0.00 0.00 0.00 88 1012.2
20260506102020 -3 322 0.0 0.0 0.00 0.00 0.00 87 1012.1
20260506101033 -3 336 0.0 0.0 0.00 0.00 0.00 88 1012.1
20260506095033 -3 338 1.6 0.0 0.00 0.00 0.00 87 1012.7
20260506094030 -3 324 1.6 0.0 0.00 0.00 0.00 86 1012.7
20260506092029 -3 228 0.0 0.0 0.00 0.00 0.00 86 1012.6
20260506091024 -3 296 0.0 0.0 0.00 0.00 0.00 87 1012.1
20260506090019 -3 296 1.6 0.0 0.00 0.00 0.00 87 1012.2
20260506085020 -3 304 1.6 0.0 0.00 0.00 0.00 87 1012.2
20260506083033 -3 305 1.6 0.0 0.00 0.00 0.00 88 1011.8
20260506082030 -3 41 0.0 0.0 0.00 0.00 0.00 88 1012.1
20260506081029 -3 198 1.6 0.0 0.00 0.00 0.00 88 1011.8
20260506073030 -2 311 4.8 0.0 0.00 0.00 0.00 89 1012.8
20260506062034 0 105 0.0 0.0 0.00 0.00 0.00 94 1011.8
20260506061030 0 105 1.6 0.0 0.00 0.00 0.00 94 1011.5